Temp
-4 -4 -4 -4 -4 -4 -4 -4 -4 -4 -4 -4 -4 -4 -3 -3 -3 -3 -3 -3 -4 -4 -4 -4 -4 -4 -4 -4 -4 -4 -4 -4 -5 -5 -5 -5 -6 -6 -6 -6 -6 -6 -5 -5 -5 -5 -4
-5 -5 -5 -4 -4 -4 -4 -4 -4 -4 -4 -4 -4 -3 -3 -3 -3 -3 -3 -3 -3 -4 -4 -4 -4 -4 -4 -4 -4 -4 -5 -5 -4 -5 -5 -5 -6 -5 -5 -5 -6 -5 -6 -5 -5 -5 -4
-4 -5 -5 -5 -5 -5 -4 -4 -4 -4 -4 -4 -4 -3 -3 -3 -3 -3 -3 -3 -3 -3 -4 -4 -4 -4 -4 -4 -4 -4 -5 -5 -5 -5 -5 -5 -5 -5 -5 -5 -5 -5 -5 -5 -5 -5 -5
-5 -5 -5 -5 -5 -5 -5 -4 -4 -4 -4 -4 -4 -4 -3 -3 -3 -3 -3 -3 -3 -3 -3 -3 -3 -4 -4 -4 -4 -4 -4 -5 -5 -5 -5 -5 -5 -6 -5 -5 -6 -5 -4 -5 -5 -5 -5
-5 -5 -5 -4 -4 -5 -5 -5 -5 -4 -4 -4 -4 -4 -4 -3 -3 -3 -3 -3 -3 -3 -3 -3 -3 -3 -4 -3 -4 -4 -4 -4 -4 -4 -4 -4 -5 -6 -7 -5 -4 -4 -4 -4 -4 -5 -6
-5 -5 -5 -5 -5 -4 -4 -4 -5 -5 -5 -4 -4 -4 -4 -4 -3 -3 -3 -3 -3 -3 -3 -3 -3 -3 -3 -3 -3 -3 -3 -4 -4 -4 -4 -4 -4 -5 -5 -5 -4 -4 -4 -4 -5 -5 -5
-6 -6 -5 -5 -5 -5 -5 -4 -4 -4 -5 -5 -4 -4 -4 -4 -4 -3 -3 -3 -3 -3 -4 -3 -3 -4 -3 -3 -3 -3 -3 -3 -3 -3 -4 -4 -4 -4 -4 -4 -4 -4 -4 -5 -5 -5 -5
-6 -6 -6 -6 -5 -5 -5 -5 -5 -4 -4 -4 -4 -4 -4 -4 -4 -4 -3 -3 -3 -4 -4 -3 -3 -4 -3 -3 -3 -3 -4 -3 -3 -3 -3 -4 -4 -4 -5 -5 -4 -4 -4 -5 -6 -6 -5
-7 -7 -7 -6 -6 -6 -5 -5 -5 -5 -5 -4 -4 -4 -4 -4 -4 -4 -4 -3 -4 -4 -4 -4 -3 -4 -3 -3 -3 -3 -3 -4 -4 -4 -4 -4 -4 -4 -4 -4 -4 -4 -4 -4 -5 -6 -6
-8 -8 -7 -7 -7 -6 -6 -6 -6 -5 -5 -5 -5 -4 -4 -4 -4 -4 -4 -4 -4 -4 -4 -4 -4 -4 -3 -4 -3 -3 -3 -3 -3 -3 -4 -4 -3 -3 -4 -4 -4 -4 -3 -3 -3 -3 -4
-8 -8 -8 -8 -7 -7 -7 -7 -6 -6 -6 -6 -5 -5 -5 -5 -4 -4 -4 -4 -4 -4 -4 -4 -4 -3 -4 -4 -4 -4 -4 -3 -3 -3 -4 -4 -3 -3 -3 -3 -3 -3 -4 -3 -2 -2 -3
-9 -9 -9 -8 -8 -8 -8 -7 -7 -7 -6 -6 -6 -6 -5 -5 -5 -4 -4 -5 -4 -4 -4 -4 -4 -4 -4 -4 -4 -3 -3 -3 -3 -3 -3 -4 -3 -3 -3 -3 -4 -3 -3 -3 -3 -3 -3
-9 -9 -9 -9 -9 -8 -8 -8 -8 -8 -7 -7 -7 -7 -6 -6 -5 -5 -5 -5 -5 -4 -4 -4 -4 -4 -4 -4 -4 -4 -3 -3 -3 -3 -3 -3 -3 -3 -4 -4 -4 -4 -4 -3 -3 -3 -3
-9 -9 -9 -9 -9 -8 -8 -8 -8 -8 -8 -8 -8 -7 -7 -6 -6 -6 -5 -5 -5 -5 -5 -5 -5 -4 -4 -4 -4 -4 -4 -3 -3 -3 -4 -4 -4 -4 -4 -4 -4 -4 -4 -3 -3 -4 -4
-9 -9 -9 -9 -9 -8 -9 -8 -8 -8 -8 -8 -8 -8 -8 -7 -7 -7 -6 -5 -5 -5 -5 -5 -5 -4 -4 -4 -4 -4 -4 -4 -4 -4 -4 -4 -4 -4 -4 -4 -4 -4 -4 -4 -4 -3 -3
-9 -9 -9 -9 -9 -9 -9 -9 -8 -8 -8 -8 -8 -8 -8 -8 -8 -7 -7 -6 -6 -6 -6 -6 -6 -5 -5 -4 -4 -4 -4 -4 -4 -4 -4 -4 -5 -4 -4 -4 -4 -4 -5 -5 -5 -5 -4
-10 -10 -9 -9 -9 -9 -9 -9 -9 -8 -8 -8 -8 -8 -8 -9 -8 -8 -7 -7 -7 -7 -7 -7 -7 -6 -6 -5 -5 -5 -4 -5 -4 -4 -4 -4 -4 -4 -5 -4 -4 -4 -5 -6 -6 -6 -6
-10 -10 -10 -10 -9 -9 -9 -9 -9 -9 -9 -9 -9 -8 -9 -8 -8 -8 -8 -8 -8 -8 -8 -8 -7 -7 -7 -6 -6 -5 -5 -5 -4 -5 -4 -5 -4 -5 -5 -5 -5 -5 -6 -7 -7 -7 -7
-10 -10 -10 -10 -10 -10 -9 -9 -9 -9 -9 -9 -9 -9 -9 -8 -8 -8 -8 -9 -9 -9 -9 -8 -8 -8 -7 -7 -7 -7 -7 -7 -6 -5 -5 -5 -4 -5 -5 -5 -5 -5 -6 -7 -8 -8 -8
-11 -11 -11 -11 -10 -10 -10 -9 -9 -9 -9 -9 -9 -9 -8 -8 -8 -8 -8 -8 -9 -9 -9 -8 -8 -8 -8 -8 -8 -8 -8 -8 -7 -7 -7 -6 -6 -6 -6 -6 -6 -6 -8 -8 -8 -8 -8
-12 -12 -12 -12 -11 -11 -11 -10 -10 -9 -9 -9 -9 -8 -9 -9 -9 -9 -9 -8 -9 -9 -9 -9 -9 -8 -8 -9 -8 -8 -9 -9 -8 -8 -8 -8 -7 -6 -6 -7 -7 -8 -8 -9 -9 -8 -8
-12 -12 -13 -12 -12 -12 -11 -11 -11 -10 -10 -10 -9 -9 -9 -9 -9 -9 -9 -8 -9 -9 -9 -9 -9 -9 -9 -9 -9 -9 -9 -9 -9 -9 -9 -9 -8 -8 -8 -8 -9 -9 -9 -9 -9 -8 -8
-13 -13 -13 -14 -13 -13 -12 -12 -12 -11 -11 -11 -10 -10 -10 -9 -10 -9 -9 -9 -9 -9 -9 -9 -9 -10 -9 -9 -10 -10 -10 -9 -9 -9 -9 -9 -9 -9 -9 -9 -9 -9 -9 -9 -9 -9 -8
-14 -14 -15 -15 -14 -13 -13 -13 -13 -12 -12 -12 -11 -11 -11 -10 -10 -10 -9 -9 -9 -9 -10 -10 -10 -9 -10 -10 -10 -10 -10 -10 -10 -10 -10 -9 -9 -9 -9 -10 -9 -9 -9 -9 -9 -9 -8
-14 -15 -15 -15 -14 -14 -14 -13 -13 -13 -13 -12 -12 -12 -11 -11 -11 -10 -10 -10 -10 -10 -10 -10 -10 -10 -10 -10 -11 -10 -10 -10 -10 -10 -10 -10 -10 -10 -9 -10 -9 -9 -10 -9 -9 -9 -9
-15 -15 -15 -15 -15 -14 -14 -14 -14 -14 -13 -13 -13 -13 -12 -12 -11 -11 -11 -10 -10 -10 -11 -11 -11 -10 -10 -10 -10 -10 -10 -10 -10 -10 -10 -10 -10 -10 -10 -9 -9 -9 -10 -10 -10 -9 -9
-15 -15 -15 -15 -15 -15 -15 -14 -14 -14 -14 -14 -14 -14 -13 -13 -13 -12 -11 -11 -11 -11 -11 -11 -11 -11 -11 -11 -10 -10 -10 -10 -10 -10 -10 -10 -10 -10 -10 -9 -9 -9 -9 -9 -9 -9 -9
-16 -16 -16 -16 -16 -16 -15 -15 -14 -14 -14 -14 -14 -14 -14 -14 -13 -13 -12 -12 -12 -12 -12 -12 -12 -11 -11 -11 -11 -10 -10 -10 -10 -10 -10 -10 -10 -10 -10 -10 -10 -9 -9 -9 -9 -9 -9
-16 -16 -16 -16 -16 -16 -16 -16 -15 -15 -15 -15 -15 -15 -14 -14 -14 -13 -13 -13 -13 -13 -13 -12 -12 -12 -12 -12 -11 -11 -10 -10 -10 -10 -10 -10 -11 -10 -10 -10 -10 -9 -9 -9 -10 -10 -10
Height
5872 5873 5875 5878 5880 5883 5885 5886 5887 5889 5891 5893 5894 5896 5897 5899 5901 5903 5904 5906 5907 5909 5911 5912 5913 5914 5915 5918 5920 5920 5922 5922 5922 5923 5927 5928 5928 5929 5930 5934 5935 5935 5938 5939 5938 5940 5940
5869 5870 5872 5874 5876 5879 5881 5883 5885 5887 5889 5891 5893 5895 5896 5898 5900 5902 5904 5906 5908 5909 5911 5913 5915 5916 5918 5920 5922 5923 5924 5925 5925 5926 5929 5930 5931 5931 5932 5935 5938 5939 5941 5941 5940 5941 5942
5866 5867 5869 5871 5873 5875 5877 5880 5882 5884 5887 5889 5891 5893 5895 5896 5899 5901 5903 5906 5908 5910 5911 5913 5915 5917 5919 5921 5923 5925 5926 5927 5928 5930 5931 5933 5934 5935 5937 5937 5938 5941 5943 5942 5943 5942 5942
5862 5864 5865 5867 5869 5871 5873 5875 5878 5881 5883 5886 5888 5890 5893 5895 5897 5899 5902 5905 5908 5910 5912 5913 5916 5918 5920 5921 5922 5925 5927 5928 5929 5932 5934 5936 5936 5939 5939 5939 5941 5942 5944 5945 5946 5945 5945
5857 5859 5861 5863 5865 5866 5869 5871 5873 5877 5879 5882 5884 5887 5889 5892 5895 5897 5900 5903 5906 5909 5911 5913 5915 5917 5919 5921 5924 5925 5928 5928 5930 5934 5936 5937 5938 5939 5940 5940 5942 5942 5944 5945 5945 5946 5947
5851 5853 5855 5857 5859 5862 5864 5866 5869 5872 5875 5877 5880 5883 5885 5888 5891 5894 5897 5900 5903 5907 5909 5912 5915 5918 5920 5923 5924 5926 5928 5930 5931 5934 5937 5939 5939 5940 5942 5944 5943 5944 5945 5945 5946 5948 5949
5844 5846 5848 5850 5853 5855 5858 5860 5863 5866 5869 5872 5875 5877 5881 5884 5887 5890 5894 5897 5902 5905 5908 5911 5914 5916 5919 5922 5924 5927 5929 5931 5931 5934 5936 5939 5941 5940 5942 5945 5945 5946 5946 5946 5948 5948 5949
5837 5839 5841 5843 5846 5848 5851 5854 5857 5860 5863 5866 5869 5872 5875 5878 5882 5886 5890 5893 5895 5899 5903 5906 5910 5914 5916 5919 5921 5925 5928 5932 5933 5934 5936 5939 5940 5940 5941 5945 5946 5947 5947 5947 5948 5948 5949
5830 5831 5833 5836 5838 5840 5843 5846 5849 5852 5856 5859 5863 5865 5869 5872 5876 5881 5885 5888 5890 5893 5897 5902 5906 5910 5913 5917 5918 5922 5925 5928 5931 5934 5936 5937 5939 5940 5942 5945 5947 5948 5948 5947 5947 5947 5948
5823 5824 5826 5828 5830 5832 5835 5837 5841 5844 5848 5852 5856 5859 5862 5866 5871 5874 5879 5881 5884 5888 5892 5897 5901 5904 5909 5912 5915 5918 5922 5926 5928 5931 5933 5935 5937 5939 5942 5943 5944 5945 5946 5947 5946 5946 5948
5818 5818 5819 5820 5823 5825 5827 5829 5832 5835 5839 5843 5847 5851 5855 5859 5863 5868 5873 5874 5878 5884 5887 5891 5894 5898 5904 5908 5912 5915 5917 5921 5926 5927 5932 5934 5935 5938 5939 5940 5943 5944 5946 5947 5946 5946 5947
5811 5812 5813 5814 5815 5817 5820 5822 5824 5827 5830 5834 5838 5842 5846 5851 5856 5861 5864 5868 5872 5878 5880 5884 5888 5892 5898 5901 5906 5910 5914 5917 5921 5923 5927 5928 5932 5936 5937 5939 5941 5943 5944 5945 5945 5945 5946
5805 5806 5806 5807 5809 5810 5812 5815 5817 5820 5822 5825 5829 5833 5837 5842 5847 5852 5856 5861 5867 5870 5874 5878 5881 5886 5890 5895 5900 5904 5909 5914 5917 5921 5925 5925 5929 5933 5935 5937 5938 5939 5941 5942 5944 5943 5944
5797 5798 5799 5800 5801 5803 5805 5807 5810 5812 5815 5818 5821 5824 5827 5833 5837 5842 5847 5854 5860 5864 5866 5870 5875 5879 5885 5887 5893 5898 5902 5907 5912 5916 5919 5921 5925 5929 5932 5933 5934 5936 5938 5939 5939 5940 5941
5788 5789 5790 5791 5793 5795 5797 5799 5802 5805 5808 5810 5814 5816 5819 5824 5828 5832 5839 5845 5852 5855 5860 5864 5868 5872 5877 5881 5888 5892 5897 5902 5905 5910 5914 5917 5920 5923 5926 5927 5929 5931 5933 5936 5936 5936 5937
5779 5779 5780 5782 5783 5786 5788 5791 5793 5796 5799 5802 5806 5808 5811 5815 5818 5823 5829 5837 5842 5847 5852 5856 5861 5866 5871 5876 5881 5886 5890 5896 5900 5904 5908 5911 5914 5916 5920 5922 5923 5925 5927 5929 5931 5932 5933
5769 5770 5770 5772 5773 5775 5778 5781 5784 5787 5790 5793 5797 5800 5804 5807 5810 5814 5821 5829 5832 5838 5844 5849 5853 5858 5863 5868 5874 5879 5885 5888 5892 5896 5900 5904 5907 5911 5913 5916 5919 5921 5921 5923 5926 5928 5929
5759 5759 5760 5761 5762 5764 5767 5770 5773 5777 5780 5784 5787 5792 5796 5799 5803 5808 5814 5819 5824 5830 5835 5841 5846 5851 5856 5861 5866 5872 5878 5880 5885 5889 5894 5897 5900 5903 5907 5909 5912 5913 5915 5917 5920 5924 5925
5747 5748 5749 5750 5751 5753 5756 5759 5762 5766 5770 5774 5777 5782 5787 5791 5795 5801 5806 5810 5815 5821 5826 5832 5837 5842 5848 5854 5861 5866 5871 5875 5878 5883 5887 5889 5893 5896 5899 5903 5905 5908 5910 5913 5916 5920 5921
5737 5737 5737 5739 5740 5741 5744 5748 5751 5755 5759 5763 5768 5772 5777 5782 5787 5792 5797 5802 5808 5812 5818 5824 5830 5835 5842 5848 5853 5859 5865 5868 5873 5877 5880 5882 5887 5890 5893 5898 5901 5903 5906 5907 5910 5914 5918
5728 5727 5727 5727 5729 5730 5732 5735 5739 5743 5747 5753 5758 5763 5768 5773 5778 5784 5789 5794 5800 5805 5811 5817 5823 5829 5834 5839 5846 5853 5859 5864 5869 5872 5874 5878 5883 5885 5887 5891 5894 5897 5900 5902 5905 5909 5913
5720 5717 5716 5717 5718 5719 5721 5724 5726 5730 5735 5741 5747 5753 5758 5763 5768 5773 5780 5786 5791 5797 5803 5809 5818 5822 5827 5833 5840 5847 5853 5860 5864 5868 5870 5874 5879 5880 5882 5885 5887 5891 5895 5898 5901 5904 5908
5709 5706 5705 5706 5707 5708 5710 5713 5716 5719 5723 5728 5735 5741 5746 5752 5757 5764 5770 5777 5784 5790 5796 5802 5809 5813 5819 5831 5833 5840 5845 5852 5858 5863 5867 5871 5873 5877 5879 5880 5882 5885 5890 5894 5896 5899 5903
5700 5697 5695 5695 5698 5700 5702 5705 5708 5710 5714 5718 5723 5729 5735 5741 5747 5753 5760 5768 5774 5780 5787 5792 5799 5806 5818 5821 5827 5833 5840 5846 5852 5857 5862 5866 5870 5873 5875 5876 5877 5881 5885 5888 5892 5896 5899
5694 5691 5688 5687 5689 5692 5694 5697 5700 5702 5705 5709 5713 5718 5724 5730 5736 5743 5750 5758 5764 5771 5778 5784 5791 5799 5806 5813 5819 5826 5833 5840 5846 5851 5856 5862 5865 5868 5870 5871 5873 5877 5879 5883 5887 5892 5895
5687 5684 5682 5681 5682 5685 5687 5690 5692 5695 5698 5701 5704 5709 5714 5720 5726 5733 5741 5748 5755 5761 5769 5775 5782 5790 5797 5804 5809 5815 5824 5833 5840 5844 5850 5854 5859 5863 5864 5865 5868 5873 5875 5878 5881 5885 5890
5682 5679 5677 5676 5676 5677 5680 5682 5685 5688 5692 5695 5698 5702 5706 5711 5717 5724 5731 5738 5745 5751 5759 5767 5774 5781 5789 5795 5802 5809 5816 5824 5831 5837 5843 5846 5851 5854 5857 5859 5863 5867 5870 5873 5874 5882 5884
5678 5675 5672 5671 5671 5671 5673 5675 5677 5681 5685 5688 5692 5695 5699 5704 5709 5716 5722 5729 5736 5743 5751 5759 5767 5772 5781 5787 5795 5801 5809 5816 5823 5829 5834 5839 5844 5847 5851 5854 5857 5861 5864 5868 5871 5872 5877
5673 5670 5667 5666 5666 5666 5667 5668 5670 5673 5677 5681 5685 5688 5692 5696 5703 5708 5714 5721 5728 5735 5744 5751 5759 5765 5772 5780 5787 5793 5801 5808 5815 5820 5826 5832 5836 5841 5846 5849 5853 5856 5859 5862 5864 5867 5870
Wind_Speed
17 19 20 20 20 19 20 16 15 12 10 10 11 10 8 7 7 10 10 9 10 12 12 11 9 9 7 7 13 16 15 15 16 17 16 15 16 11 13 12 8 7 12 15 17 13 14
17 18 20 21 21 22 21 21 19 16 13 11 12 12 11 9 8 10 12 11 10 12 13 12 10 8 8 9 12 15 15 13 10 12 12 15 10 11 11 12 11 14 14 11 16 16 15
19 19 19 20 21 22 23 23 23 21 18 14 14 14 13 12 10 11 13 14 13 12 14 13 11 11 10 10 11 16 15 13 10 13 21 19 16 13 18 13 17 21 14 17 16 15 15
25 23 22 21 21 21 23 24 26 25 23 19 16 16 15 15 13 12 15 17 15 14 14 14 13 13 11 11 12 15 19 14 13 12 13 17 19 14 13 15 20 15 18 18 16 15 13
29 28 27 26 24 23 23 24 25 28 27 25 22 19 18 17 16 15 16 19 19 17 16 15 14 14 14 12 11 12 16 14 13 11 13 15 13 16 11 16 14 12 10 14 14 15 11
29 30 31 30 30 28 26 25 25 26 29 30 27 26 23 20 19 17 17 20 23 21 19 17 16 16 14 10 9 11 12 12 10 15 14 11 13 8 9 11 14 12 9 12 10 9 9
29 31 32 33 34 32 32 30 28 27 27 28 31 32 30 28 24 21 19 21 24 24 22 20 18 16 12 11 12 9 10 11 9 9 13 13 9 10 7 5 6 11 10 9 6 5 3
28 30 31 33 34 35 36 35 33 32 30 28 28 29 31 33 31 27 22 19 26 27 27 25 22 19 19 16 16 14 13 10 11 10 9 12 13 11 9 7 6 7 7 8 9 4 2
26 27 29 31 33 35 36 36 38 36 35 33 31 30 29 30 31 33 27 24 26 29 29 29 27 24 22 20 19 17 16 16 13 12 12 14 13 11 10 10 6 7 9 8 8 7 4
26 27 27 27 29 31 35 37 38 38 39 38 37 35 32 31 30 30 30 29 28 29 29 31 30 29 26 24 23 20 19 18 17 15 16 17 13 13 11 11 7 7 9 10 9 8 5
23 25 28 29 28 28 29 32 36 37 38 38 39 38 37 35 33 32 32 32 32 30 31 32 33 33 29 28 26 24 23 22 19 19 17 16 15 13 12 12 10 10 8 9 11 10 4
25 25 25 26 27 28 28 28 29 32 35 38 38 38 40 40 38 35 35 35 34 33 33 32 33 34 32 31 30 28 28 25 25 25 21 22 18 16 16 13 12 11 12 13 14 14 9
27 26 26 27 27 27 27 28 28 28 28 32 36 39 39 41 41 40 39 38 36 35 34 34 32 33 34 33 32 31 30 27 27 25 21 23 20 17 18 16 16 16 15 18 16 16 14
31 30 30 29 28 29 29 28 28 28 28 30 29 34 39 40 40 42 43 41 38 37 36 35 34 33 34 34 33 32 31 31 29 27 25 25 23 20 18 19 21 20 20 20 21 19 17
31 34 33 33 33 32 30 30 30 30 30 30 29 31 34 37 41 42 43 45 41 40 39 37 36 35 33 34 33 32 33 30 28 27 26 25 24 22 21 24 25 23 24 22 23 25 23
31 32 33 35 35 35 34 33 33 32 31 31 30 31 33 33 38 43 44 44 43 41 39 37 37 36 35 35 33 31 32 31 29 29 28 27 26 28 26 27 29 27 27 26 26 26 24
30 30 32 34 35 36 36 36 36 34 34 34 32 33 32 33 36 40 44 43 42 38 38 37 37 37 37 37 36 35 33 33 32 32 33 32 31 30 30 31 30 30 31 30 28 27 25
33 33 33 32 34 35 37 37 37 36 36 37 37 35 34 34 35 35 36 41 40 38 37 37 37 38 39 39 39 37 33 35 36 32 34 32 33 32 32 32 33 34 35 34 32 26 24
34 36 36 36 37 36 36 36 38 39 38 38 38 39 38 35 34 33 33 36 39 39 38 38 40 41 40 40 38 34 30 31 33 34 33 35 36 32 32 33 32 35 36 36 33 26 25
26 28 32 35 36 37 39 39 39 38 38 38 39 39 40 39 36 33 35 35 39 41 41 41 41 41 41 40 38 36 29 28 25 23 24 28 30 32 31 26 28 32 33 36 34 27 20
27 28 29 31 34 38 37 37 43 43 41 40 39 38 39 38 39 37 33 37 36 40 41 42 41 41 41 40 39 36 30 27 25 22 23 24 24 29 29 24 29 32 31 34 32 25 26
28 30 32 31 31 31 34 35 36 42 46 45 43 40 39 38 39 40 40 35 39 38 43 43 39 40 41 40 39 38 32 28 23 19 24 23 20 25 24 24 33 34 34 30 30 25 28
27 28 31 31 29 28 30 29 29 33 39 44 45 44 43 42 41 41 41 40 36 39 39 42 41 42 43 38 40 37 34 27 22 17 20 22 22 22 20 23 29 36 38 29 29 27 22
23 23 25 27 26 25 24 25 24 25 30 38 43 44 44 42 43 43 42 41 40 39 40 41 43 43 40 42 42 42 37 31 27 24 22 16 19 19 21 17 21 27 33 38 29 20 22
21 20 19 21 23 23 22 23 26 27 28 30 37 40 42 43 43 43 43 42 41 41 40 40 42 43 43 45 46 44 43 39 33 32 26 26 24 24 25 24 23 21 29 37 32 24 22
20 18 17 16 20 24 24 23 23 24 23 24 28 33 34 37 42 43 42 42 41 42 42 42 41 44 43 44 50 47 42 40 39 35 34 33 32 31 31 31 27 27 25 27 27 32 23
20 17 16 15 16 19 22 25 25 25 24 23 23 25 29 31 35 40 42 42 42 43 42 42 42 43 44 45 46 46 46 45 45 43 42 38 35 33 34 35 30 27 28 26 28 29 31
20 17 15 15 15 16 18 22 26 28 26 25 24 25 26 28 31 35 40 43 42 43 43 44 43 43 44 44 45 47 44 43 43 43 46 44 39 36 35 39 36 29 30 31 28 28 30
20 17 15 14 13 15 16 17 20 24 27 28 26 25 27 28 30 33 38 41 42 42 41 44 45 43 44 43 44 45 45 43 40 38 38 43 39 39 38 37 31 26 24 25 25 24 22
Wind_Direction
236 234 235 233 232 229 228 233 230 228 226 225 223 227 227 223 204 192 180 171 166 164 159 154 145 145 150 122 113 115 109 113 117 123 117 111 130 113 120 118 114 142 122 118 121 131 122
239 237 236 236 235 233 228 227 229 227 229 225 224 225 232 230 219 204 192 181 172 171 169 167 163 150 144 134 122 124 115 119 124 118 121 118 133 143 110 115 111 132 113 122 125 126 118
240 241 238 237 239 237 233 227 226 229 228 225 221 223 226 232 230 216 207 194 181 175 176 175 170 160 148 144 137 130 133 139 126 118 122 114 124 112 105 112 127 134 120 113 124 120 116
238 238 240 241 240 239 239 233 226 227 229 229 224 221 222 227 231 228 214 206 198 185 180 180 176 171 161 160 155 152 145 150 128 128 130 122 125 116 99 109 125 123 124 121 116 110 109
237 238 238 240 241 241 240 239 235 228 229 230 230 227 224 223 227 228 225 214 208 199 192 194 185 185 187 185 165 158 168 168 151 138 136 146 133 122 117 115 112 95 106 108 104 95 103
241 239 238 238 239 240 241 240 239 236 232 233 233 233 232 230 226 227 229 220 215 208 201 202 196 198 207 193 178 166 164 171 163 149 151 158 142 122 125 130 124 127 109 107 112 117 123
245 244 241 240 239 239 238 239 240 238 236 235 235 237 236 237 236 231 229 225 217 214 210 210 207 207 205 201 198 184 182 172 177 170 159 174 173 155 162 114 146 127 116 122 116 111 98
249 246 244 242 241 240 239 239 238 239 239 238 237 236 238 239 237 238 234 236 221 216 212 213 213 212 211 204 213 196 184 185 186 194 177 181 203 177 194 191 206 186 167 143 142 155 89
253 250 247 244 243 241 241 240 239 238 237 237 237 236 235 236 235 236 235 232 223 221 217 217 217 215 218 215 221 209 200 189 189 194 192 192 210 206 208 238 195 216 225 191 189 187 172
255 252 250 247 245 243 242 240 240 239 237 236 235 235 234 235 234 231 230 227 225 223 222 219 219 218 217 216 220 224 213 209 201 202 195 210 208 204 210 220 226 253 252 247 246 242 214
261 256 251 249 246 244 242 241 240 239 238 237 235 234 232 232 231 230 227 227 225 223 226 223 222 223 219 220 218 219 223 219 215 216 209 227 227 214 216 232 243 271 280 272 287 289 280
260 259 256 252 248 245 243 240 239 239 238 237 235 235 233 231 229 228 227 226 227 223 226 227 224 223 220 217 221 221 222 223 222 225 216 221 225 223 235 241 244 265 277 276 281 286 298
259 257 255 254 252 250 246 242 240 239 238 237 235 235 233 232 230 226 227 226 226 226 226 226 228 222 222 219 221 222 225 226 230 233 231 237 237 231 234 240 247 256 262 272 275 273 277
260 258 255 253 251 250 249 246 242 241 240 238 236 235 234 232 232 230 228 226 225 225 226 228 228 227 226 227 219 223 226 226 226 228 225 234 240 238 234 238 241 248 255 264 274 272 271
260 257 257 255 252 249 248 247 245 243 241 240 236 237 235 232 231 231 230 228 225 226 227 228 229 229 226 230 228 224 227 227 223 226 230 231 239 243 236 238 249 251 255 257 263 268 272
263 260 256 254 253 252 248 247 246 244 242 240 237 236 236 234 232 231 229 229 230 228 227 228 229 230 231 231 232 230 228 229 228 229 231 233 231 241 240 245 253 254 257 255 259 264 270
269 264 260 255 252 249 248 247 246 244 242 241 237 236 235 234 233 231 229 228 230 229 227 225 229 231 232 233 233 234 232 229 230 230 232 235 236 240 243 248 251 254 252 253 255 258 270
268 265 262 259 255 251 246 244 242 242 240 239 238 236 235 234 235 234 230 228 229 228 227 225 224 228 231 234 236 237 239 238 241 239 242 239 243 240 243 246 246 243 245 247 252 259 260
271 266 262 259 255 252 249 245 242 239 237 236 235 235 235 235 234 233 229 227 226 226 225 223 224 224 226 229 232 236 237 243 248 253 256 247 249 241 242 243 245 246 242 245 248 245 252
279 273 267 261 256 252 248 245 242 238 236 234 233 233 233 234 233 232 230 227 225 225 224 224 223 225 227 226 226 227 224 234 241 244 245 242 235 236 241 243 245 241 236 241 248 240 249
287 277 272 264 258 252 248 246 241 238 236 234 234 233 232 232 232 231 231 227 224 225 227 227 226 227 228 230 229 228 220 222 230 242 235 242 243 237 235 230 225 228 231 238 245 248 235
292 283 269 262 255 251 247 246 244 238 235 235 234 233 233 231 230 229 229 229 224 221 224 228 225 227 228 230 234 235 232 223 222 224 224 238 242 232 221 217 214 220 221 235 246 245 236
297 291 274 258 251 247 245 243 243 239 235 233 233 232 232 230 229 227 227 226 228 225 222 225 222 223 227 226 226 230 232 226 224 229 225 234 237 220 203 206 208 219 222 230 243 253 243
306 303 282 253 245 239 237 235 238 240 239 234 230 230 230 229 227 227 227 224 224 223 221 222 222 224 223 225 221 223 230 227 224 225 234 228 225 220 207 205 216 217 224 231 237 239 247
302 295 286 256 244 246 241 241 241 238 235 234 231 228 227 226 226 226 225 223 221 220 218 219 219 221 220 221 224 223 223 224 225 233 230 231 225 236 233 218 222 227 243 236 225 227 231
307 294 283 268 250 242 243 241 236 230 230 230 228 227 226 224 224 223 222 222 220 219 215 214 217 218 218 219 222 228 227 229 227 227 232 232 238 243 237 232 231 233 244 257 250 235 234
313 301 288 274 258 249 243 238 234 230 228 228 227 226 226 225 223 222 220 220 217 217 214 212 213 216 217 221 223 227 229 228 229 228 230 236 242 245 239 233 247 259 248 250 255 249 246
320 311 297 281 268 256 248 240 236 233 229 228 227 227 228 229 225 222 220 218 215 214 211 209 210 213 216 219 222 227 229 230 232 233 234 239 234 235 233 238 248 249 252 251 259 252 243
326 314 301 287 272 261 252 243 238 234 231 228 228 227 227 228 227 222 220 217 213 209 206 207 210 213 215 218 222 226 228 228 228 231 230 222 226 233 237 245 249 249 254 260 255 249 242